Location: Góry Miechowskie
(50.3599°N, 20.1803°E)
Time: 12:36:19
(UTC+00:00)

IDEFIX/ARIANE 42P - Pass Details

Date: 15 June 2024
Orbit: 782 x 800 km, 98.5° (Epoch: 16 July)

Event Time Altitude Azimuth Distance (km) Brightness Sun altitude
Rises 00:02:41 0° 18° (NNE) 3,319 7.8 -14.1°
Reaches altitude 10° 00:05:07 10° 24° (NNE) 2,382 6.5 -13.9°
Maximum altitude 00:10:13 49° 99° (E) 1,026 3.2 -13.7°
Enters shadow 00:14:28 14° 171° (S) 2,061 4.2 -13.4°
